Windsor Locks, CT

5:48 AM EST on January 24, 2017 (GMT -0500)
Bradley International

Weather History for KBDL - May, 2013

Change the Weather History Date:

Friday, May 3, 2013

  Actual Average Record
Temperature  
Mean Temperature 56 °F 56 °F  
Max Temperature 70 °F 67 °F 93 °F (2001)
Min Temperature 42 °F 44 °F 30 °F (1964)
Degree Days  
Heating Degree Days 9 10  
Month to date heating degree days 24 30  
Since 1 July heating degree days 5517 5783  
Cooling Degree Days 0 0  
Month to date cooling degree days 0 0  
Year to date cooling degree days 0 6  
Growing Degree Days 6 (Base 50)    
Moisture  
Dew Point 36 °F    
Average Humidity 54    
Maximum Humidity 76    
Minimum Humidity 32    
Precipitation  
Precipitation 0.00 in 0.12 in 2.17 in (1934)
Month to date precipitation 0.00 0.36  
Year to date precipitation 9.78 13.82  
Snow  
Snow 0.00 in 0.00 in 0.00 in (2015)
Month to date snowfall 0.0 0.0  
Since 1 July snowfall 56.9 40.5  
Snow Depth 0.00 in    
Sea Level Pressure  
Sea Level Pressure 30.43 in    
Wind  
Wind Speed 8 mph (NE)    
Max Wind Speed 16 mph    
Max Gust Speed 23 mph    
Visibility 10 miles    
Events      
T = Trace of Precipitation, MM = Missing Value Source: NWS Daily Summary

Daily Weather History Graph

Daily Weather History Graph

Search for Another Location

Airport or City:

Trip Planner

Search our weather history database for the weather conditions in past years. The results will help you decide how hot, cold, wet, or windy it might be!

Date:

Astronomy

May. 03, 2013 Rise Set
Actual Time 5:43 AM EDT 7:51 PM EDT
Civil Twilight 5:13 AM EDT 8:22 PM EDT
Nautical Twilight 4:35 AM EDT 9:00 PM EDT
Astronomical Twilight 3:54 AM EDT 9:41 PM EDT
Moon 2:12 AM EDT (5/3) 1:37 PM EDT (5/3)
Length of Visible Light 15h 09m
Length of Day
14h 07m
Last Quarter, 37% of the Moon is Illuminated
May 3
Last Quarter
May 9
New
May 18
First Quarter
May 25
Full
May 31
Last Quarter

Hourly Weather History & Observations

Time (EDT) Temp. Windchill Dew Point Humidity Pressure Visibility Wind Dir Wind Speed Gust Speed Precip Events Conditions
12:51 AM 54.0 °F - 28.0 °F 37% 30.46 in 10.0 mi ENE 8.1 mph - N/A   Scattered Clouds
1:51 AM 51.1 °F - 32.0 °F 48% 30.45 in 10.0 mi ENE 8.1 mph - N/A   Clear
1:52 AM 51.1 °F - 32.0 °F 48% 30.45 in 10.0 mi ENE 8.1 mph - N/A   Partly Cloudy
2:51 AM 50.0 °F - 32.0 °F 50% 30.46 in 10.0 mi NE 4.6 mph - N/A   Clear
2:52 AM 50.0 °F - 32.0 °F 50% 30.46 in 10.0 mi NE 4.6 mph - N/A   Partly Cloudy
3:51 AM 46.9 °F - 34.0 °F 61% 30.46 in 10.0 mi NNE 4.6 mph - N/A   Clear
3:52 AM 46.4 °F 44.3 °F 33.8 °F 62% 30.46 in 10.0 mi NNE 4.6 mph - N/A   Partly Cloudy
4:51 AM 45.0 °F 41.2 °F 34.0 °F 65% 30.47 in 10.0 mi North 6.9 mph - N/A   Clear
4:52 AM 44.6 °F 40.7 °F 33.8 °F 66% 30.47 in 10.0 mi North 6.9 mph - N/A   Partly Cloudy
5:51 AM 43.0 °F 40.3 °F 35.1 °F 74% 30.49 in 10.0 mi North 4.6 mph - N/A   Clear
5:52 AM 42.8 °F 40.1 °F 35.6 °F 76% 30.49 in 10.0 mi North 4.6 mph - N/A   Partly Cloudy
6:51 AM 46.9 °F - 36.0 °F 66% 30.49 in 10.0 mi North 8.1 mph - N/A   Clear
7:51 AM 51.1 °F - 36.0 °F 56% 30.50 in 10.0 mi NE 13.8 mph - N/A   Clear
7:52 AM 51.8 °F - 35.6 °F 54% 30.50 in 10.0 mi NE 13.8 mph - N/A   Partly Cloudy
8:51 AM 53.1 °F - 36.0 °F 52% 30.50 in 10.0 mi NNE 11.5 mph - N/A   Clear
8:52 AM 53.6 °F - 35.6 °F 51% 30.50 in 10.0 mi NNE 11.5 mph - N/A   Partly Cloudy
9:51 AM 55.0 °F - 36.0 °F 49% 30.48 in 10.0 mi NNE 12.7 mph - N/A   Clear
9:52 AM 55.4 °F - 35.6 °F 47% 30.48 in 10.0 mi NNE 12.7 mph - N/A   Partly Cloudy
10:51 AM 57.0 °F - 36.0 °F 45% 30.48 in 10.0 mi Variable 5.8 mph 21.9 mph N/A   Partly Cloudy
11:51 AM 62.1 °F - 36.0 °F 38% 30.45 in 10.0 mi Variable 6.9 mph - N/A   Partly Cloudy
12:51 PM 64.0 °F - 36.0 °F 35% 30.42 in 10.0 mi NNE 9.2 mph - N/A   Partly Cloudy
1:51 PM 68.0 °F - 37.0 °F 32% 30.40 in 10.0 mi ENE 12.7 mph - N/A   Partly Cloudy
2:51 PM 68.0 °F - 37.0 °F 32% 30.38 in 10.0 mi North 6.9 mph 16.1 mph N/A   Partly Cloudy
3:51 PM 68.0 °F - 37.9 °F 33% 30.36 in 10.0 mi East 8.1 mph - N/A   Partly Cloudy
4:51 PM 69.1 °F - 39.0 °F 33% 30.35 in 10.0 mi East 10.4 mph - N/A   Scattered Clouds
5:51 PM 68.0 °F - 39.9 °F 36% 30.34 in 10.0 mi East 8.1 mph - N/A   Scattered Clouds
6:51 PM 66.0 °F - 41.0 °F 40% 30.34 in 10.0 mi East 10.4 mph - N/A   Partly Cloudy
7:51 PM 63.0 °F - 41.0 °F 45% 30.36 in 10.0 mi East 8.1 mph - N/A   Partly Cloudy
8:51 PM 60.1 °F - 42.1 °F 51% 30.37 in 10.0 mi East 8.1 mph - N/A   Clear
9:51 PM 57.0 °F - 42.1 °F 57% 30.38 in 10.0 mi ESE 4.6 mph - N/A   Clear
10:51 PM 54.0 °F - 43.0 °F 66% 30.39 in 10.0 mi SSE 5.8 mph - N/A   Clear
11:51 PM 52.0 °F - 43.0 °F 71% 30.38 in 10.0 mi WSW 5.8 mph - N/A   Clear